Date,TemperatureHighF,TemperatureAvgF,TemperatureLowF,DewpointHighF,DewpointAvgF,DewpointLowF,HumidityHigh,HumidityAvg,HumidityLow,PressureMaxIn,PressureMinIn,WindSpeedMaxMPH,WindSpeedAvgMPH,GustSpeedMaxMPH,PrecipitationSumIn
2013-1-1,70.0,64.0,60.0,62.0,55.1,32.0,96,75,33,0.00,40.00,10,6,21,0.88
2013-1-2,75.0,65.5,58.0,65.0,59.7,52.0,97,82,67,0.00,40.00,1,0,7,0.01
2013-1-3,73.0,65.3,61.0,63.0,60.3,58.0,98,85,69,0.00,40.00,8,5,16,0.02
2013-1-4,79.0,67.4,60.0,60.0,58.0,56.0,93,74,50,0.00,40.00,3,1,18,0.01
2013-1-5,78.0,67.9,61.0,62.0,57.8,55.0,83,71,57,0.00,40.00,8,2,27,0.00
2013-1-6,80.0,69.0,63.0,64.0,58.8,54.0,92,71,52,0.00,40.00,6,2,21,0.04
2013-1-7,74.0,66.7,61.0,64.0,60.4,55.0,97,81,64,0.00,40.00,2,1,8,0.02
2013-1-8,77.0,67.3,61.0,65.0,62.0,59.0,97,84,60,0.00,40.00,2,0,9,0.01
2013-1-9,81.0,68.3,61.0,65.0,61.7,57.0,98,81,55,0.00,40.00,3,0,6,0.01
2013-1-10,81.0,67.7,62.0,67.0,60.5,54.0,98,79,57,0.00,40.00,5,1,10,0.00
2013-1-11,80.0,68.3,60.0,64.0,59.0,53.0,98,74,52,0.00,40.00,4,1,9,0.00
2013-1-12,77.0,67.7,60.0,64.0,59.1,54.0,95,75,55,0.00,40.00,3,0,8,0.00
2013-1-13,78.0,68.0,62.0,66.0,60.8,55.0,99,79,54,0.00,40.00,8,3,20,0.26
2013-1-14,73.0,65.4,60.0,66.0,62.0,53.0,99,89,63,0.00,40.00,8,4,20,0.51
2013-1-15,78.0,63.6,55.0,59.0,54.3,50.0,94,73,48,0.00,40.00,4,1,9,0.01
2013-1-16,76.0,65.0,58.0,62.0,57.6,53.0,99,79,55,0.00,40.00,4,1,12,0.00
2013-1-17,75.0,63.4,56.0,60.0,54.6,51.0,87,74,52,0.00,40.00,3,0,10,0.00
2013-1-18,76.0,63.0,58.0,63.0,55.8,49.0,87,78,63,0.00,40.00,8,3,15,0.01
2013-1-19,71.0,63.0,58.0,56.0,51.0,47.0,75,65,51,0.00,40.00,8,6,16,0.01
2013-1-20,76.0,64.0,57.0,58.0,53.0,49.0,85,69,39,0.00,40.00,5,3,14,0.00
2013-1-21,76.0,64.3,56.0,61.0,55.3,50.0,98,74,53,0.00,40.00,3,1,9,0.00
2013-1-22,78.0,66.0,58.0,62.0,58.5,49.0,98,78,56,0.00,40.00,3,1,9,0.00
2013-1-23,72.0,63.5,58.0,61.0,56.9,52.0,97,80,66,0.00,40.00,1,0,6,0.00
2013-1-24,80.0,68.8,61.0,65.0,56.6,51.0,84,67,41,0.00,40.00,6,1,12,0.00
2013-1-25,78.0,68.2,63.0,60.0,56.0,52.0,78,66,53,0.00,40.00,6,1,11,0.00
2013-1-26,81.0,69.1,63.0,63.0,57.9,54.0,86,69,45,0.00,40.00,8,3,23,0.00
2013-1-27,70.0,62.5,57.0,64.0,58.2,53.0,99,87,78,0.00,40.00,11,5,30,1.79
2013-1-28,75.0,64.9,57.0,62.0,57.0,52.0,97,77,54,0.00,40.00,4,0,9,0.18
2013-1-29,81.0,66.9,59.0,65.0,58.6,52.0,95,76,52,0.00,40.00,5,2,14,0.00
2013-1-30,77.0,66.4,59.0,65.0,57.1,50.0,92,73,54,0.00,40.00,4,0,8,0.00
2013-1-31,78.0,66.8,58.0,65.0,58.3,52.0,93,75,56,0.00,40.00,4,1,10,0.00
2013-2-1,77.0,67.2,57.0,60.0,48.3,35.0,93,52,34,0.00,40.00,6,2,19,0.00
2013-2-2,77.0,67.7,60.0,62.0,55.5,47.0,85,66,54,0.00,40.00,2,1,16,0.00
2013-2-3,78.0,64.6,57.0,63.0,59.0,55.0,99,83,59,0.00,40.00,5,1,9,0.00
2013-2-4,78.0,65.2,55.0,58.0,55.3,52.0,97,73,50,0.00,40.00,4,1,13,0.00
2013-2-5,73.0,64.1,60.0,64.0,56.8,51.0,88,77,68,0.00,40.00,2,0,12,0.01
2013-2-6,79.0,66.5,59.0,63.0,56.3,52.0,88,71,53,0.00,40.00,3,0,10,0.01
2013-2-7,79.0,66.6,59.0,64.0,58.9,54.0,98,78,56,0.00,40.00,4,0,9,0.00
2013-2-8,78.0,67.3,60.0,65.0,61.0,56.0,98,82,63,0.00,40.00,2,0,7,0.00
2013-2-9,78.0,66.6,58.0,63.0,58.2,50.0,99,76,54,0.00,40.00,4,0,10,0.00
2013-2-10,79.0,68.3,58.0,61.0,56.6,51.0,90,68,41,0.00,40.00,4,1,15,0.00
2013-2-11,76.0,65.9,59.0,65.0,58.1,51.0,93,77,63,0.00,40.00,4,1,11,0.01
2013-2-12,76.0,64.0,58.0,58.0,52.8,48.0,83,68,50,0.00,40.00,5,2,14,0.01
2013-2-13,77.0,63.2,57.0,58.0,53.2,48.0,89,71,49,0.00,40.00,4,1,11,0.00
2013-2-14,74.0,64.1,57.0,61.0,54.2,48.0,86,71,58,0.00,40.00,2,0,9,0.00
2013-2-15,77.0,66.1,58.0,61.0,55.2,48.0,81,68,53,0.00,40.00,4,1,10,0.00
2013-2-16,79.0,67.9,61.0,62.0,53.8,45.0,81,62,44,0.00,40.00,7,2,19,0.00
2013-2-17,78.0,67.1,61.0,60.0,53.7,50.0,73,63,43,0.00,40.00,8,3,19,0.00
2013-2-18,79.0,66.2,60.0,58.0,51.9,48.0,75,61,43,0.00,40.00,8,3,21,0.00
2013-2-19,75.0,65.5,59.0,58.0,53.3,49.0,80,66,47,0.00,40.00,4,1,13,0.00
2013-2-20,79.0,67.6,59.0,63.0,55.6,50.0,87,67,46,0.00,40.00,6,1,19,0.00
2013-2-21,72.0,63.7,60.0,64.0,58.0,49.0,94,83,65,0.00,40.00,3,0,8,0.23
2013-2-22,78.0,66.2,59.0,64.0,58.7,54.0,94,78,60,0.00,40.00,3,0,8,0.02
2013-2-23,77.0,67.3,60.0,64.0,56.8,54.0,86,70,51,0.00,40.00,4,1,14,0.01
2013-2-24,78.0,66.6,59.0,60.0,54.4,50.0,87,66,42,0.00,40.00,7,1,20,0.00
2013-2-25,77.0,66.5,59.0,60.0,54.8,51.0,88,67,49,0.00,40.00,5,1,19,0.00
2013-2-26,80.0,66.7,60.0,61.0,55.0,51.0,82,67,44,0.00,40.00,4,1,15,0.00
2013-2-27,77.0,67.5,57.0,62.0,53.8,49.0,95,63,39,0.00,40.00,7,1,15,0.00
2013-2-28,80.0,67.1,58.0,58.0,52.9,48.0,81,62,42,0.00,40.00,5,1,13,0.00
2013-3-1,80.0,65.7,59.0,58.0,52.5,48.0,79,63,43,0.00,40.00,6,1,21,0.00
2013-3-2,80.0,66.6,59.0,57.0,53.0,48.0,83,63,45,0.00,40.00,4,1,14,0.00
2013-3-3,78.0,66.0,57.0,57.0,51.7,46.0,78,61,41,0.00,40.00,5,2,13,0.00
2013-3-4,78.0,65.4,58.0,57.0,51.6,47.0,78,62,47,0.00,40.00,4,1,14,0.00
2013-3-5,76.0,64.1,56.0,57.0,52.4,46.0,79,67,51,0.00,40.00,4,1,12,0.00
2013-3-6,78.0,66.0,57.0,61.0,55.5,51.0,90,71,50,0.00,40.00,4,1,12,0.00
2013-3-7,78.0,66.9,59.0,62.0,54.4,48.0,86,65,47,0.00,40.00,4,1,9,0.00
2013-3-8,79.0,66.6,59.0,65.0,54.5,47.0,99,67,44,0.00,40.00,11,5,25,0.07
2013-3-9,67.0,63.7,61.0,65.0,60.9,57.0,99,90,80,0.00,40.00,11,8,28,0.35
2013-3-10,76.0,66.5,59.0,60.0,56.0,52.0,93,71,49,0.00,40.00,6,1,13,0.15
2013-3-11,70.0,62.8,57.0,56.0,53.5,48.0,84,72,59,0.00,40.00,0,0,6,0.01
2013-3-12,76.0,65.6,57.0,58.0,53.1,48.0,81,65,45,0.00,40.00,5,1,14,0.00
2013-3-13,76.0,64.4,57.0,56.0,53.3,50.0,86,69,46,0.00,40.00,3,1,8,0.00
2013-3-14,74.0,63.7,57.0,56.0,51.8,49.0,81,67,48,0.00,40.00,4,1,9,0.00
2013-3-15,70.0,61.2,57.0,60.0,55.3,51.0,98,82,59,0.00,40.00,7,2,24,0.29
2013-3-16,72.0,62.0,57.0,56.0,52.7,47.0,85,72,55,0.00,40.00,6,3,22,0.07
2013-3-17,73.0,60.1,55.0,60.0,53.0,49.0,92,78,58,0.00,40.00,4,2,13,0.05
2013-3-18,76.0,63.5,55.0,55.0,49.3,46.0,83,62,39,0.00,40.00,3,1,11,0.05
2013-3-19,77.0,65.9,56.0,56.0,49.8,43.0,71,56,44,0.00,40.00,6,2,15,0.00
2013-3-20,84.0,69.3,59.0,63.0,54.7,47.0,96,62,37,0.00,40.00,9,3,21,0.00
2013-3-21,80.0,69.1,62.0,65.0,57.5,49.0,92,68,48,0.00,40.00,10,5,30,0.06
2013-3-22,80.0,67.5,60.0,68.0,61.2,51.0,99,81,61,0.00,40.00,7,3,20,0.48
2013-3-23,75.0,65.7,60.0,63.0,59.0,55.0,97,80,66,0.00,40.00,5,2,10,0.02
2013-3-24,76.0,66.8,62.0,64.0,60.0,55.0,92,79,59,0.00,40.00,4,0,10,0.03
2013-3-25,79.0,66.8,62.0,66.0,61.2,48.0,99,83,59,0.00,40.00,6,2,12,0.17
2013-3-26,71.0,64.4,62.0,68.0,41.3,2.0,98,56,8,0.00,40.00,10,4,19,0.57
2013-3-27,70.0,63.0,60.0,60.0,30.9,5.0,79,36,11,0.00,40.00,10,8,19,1.60
2013-3-28,78.0,68.6,61.0,64.0,59.9,52.0,91,74,57,0.00,40.00,5,2,12,0.06
2013-3-29,74.0,66.7,60.0,62.0,57.0,51.0,91,71,60,0.00,40.00,4,0,9,0.01
2013-3-30,70.0,62.8,58.0,64.0,57.3,-99.9,96,88,73,0.00,40.00,9,4,19,0.13
2013-3-31,73.0,62.4,57.0,54.0,50.7,46.0,80,66,50,0.00,40.00,7,4,19,0.01
2013-4-1,73.0,61.4,55.0,57.0,52.8,49.0,94,74,57,0.00,40.00,7,4,22,0.05
2013-4-2,72.0,62.2,57.0,57.0,51.6,48.0,85,69,53,0.00,40.00,5,2,14,0.01
2013-4-3,75.0,63.4,54.0,57.0,50.1,43.0,86,63,37,0.00,40.00,4,1,10,0.00
2013-4-4,78.0,66.6,57.0,62.0,54.4,48.0,95,66,46,0.00,40.00,3,1,9,0.00
2013-4-5,77.0,67.1,60.0,63.0,57.6,52.0,89,73,57,0.00,40.00,3,0,8,0.00
2013-4-6,82.0,69.6,61.0,67.0,57.4,51.0,90,67,44,0.00,40.00,4,1,10,0.00
2013-4-7,84.0,71.5,62.0,66.0,59.6,55.0,97,68,46,0.00,40.00,3,0,9,0.00
2013-4-8,77.0,67.2,61.0,67.0,62.5,55.0,98,86,64,0.00,40.00,4,1,12,0.01
2013-4-9,79.0,68.3,61.0,64.0,59.3,52.0,96,74,48,0.00,40.00,4,1,10,0.01
2013-4-10,81.0,70.2,62.0,66.0,61.2,56.0,91,74,58,0.00,40.00,2,0,8,0.00
2013-4-11,82.0,71.6,62.0,65.0,60.9,56.0,88,70,52,0.00,40.00,3,1,12,0.00
2013-4-12,81.0,70.5,64.0,65.0,60.6,56.0,97,72,58,0.00,40.00,9,4,24,0.00
2013-4-13,74.0,66.9,63.0,65.0,59.2,53.0,99,76,59,0.00,40.00,17,10,44,0.84
2013-4-14,78.0,68.8,62.0,67.0,62.6,53.0,98,81,60,0.00,40.00,8,3,22,0.41
2013-4-15,74.0,66.7,60.0,68.0,62.3,55.0,97,86,70,0.00,40.00,3,0,7,0.12
2013-4-16,77.0,69.7,63.0,67.0,64.0,61.0,96,83,70,0.00,40.00,1,0,6,0.01
2013-4-17,78.0,68.9,62.0,67.0,62.7,57.0,96,81,68,0.00,40.00,3,0,9,0.00
2013-4-18,81.0,69.7,63.0,67.0,61.9,57.0,97,78,56,0.00,40.00,5,1,10,0.00
2013-4-19,80.0,69.2,63.0,66.0,60.9,54.0,94,76,52,0.00,40.00,4,1,9,0.04
2013-4-20,82.0,70.7,62.0,67.0,61.3,57.0,96,73,60,0.00,40.00,6,2,15,0.02
2013-4-21,80.0,68.6,62.0,65.0,63.2,59.0,99,84,57,0.00,40.00,9,3,18,0.25
2013-4-22,70.0,65.2,62.0,67.0,62.3,58.0,98,91,84,0.00,40.00,8,3,26,0.85
2013-4-23,80.0,69.0,62.0,71.0,60.2,53.0,97,75,53,0.00,40.00,7,1,22,0.74
2013-4-24,78.0,70.7,62.0,64.0,60.6,56.0,87,71,59,0.00,40.00,2,0,7,0.01
2013-4-25,82.0,71.9,64.0,67.0,62.9,57.0,97,75,54,0.00,40.00,3,0,9,0.00
2013-4-26,80.0,71.2,64.0,66.0,60.0,55.0,86,68,52,0.00,40.00,5,1,11,0.00
2013-4-27,80.0,69.4,61.0,65.0,61.7,57.0,96,78,54,0.00,40.00,4,1,11,0.00
2013-4-28,80.0,71.1,65.0,66.0,61.6,59.0,90,73,55,0.00,40.00,10,6,27,0.00
2013-4-29,82.0,70.5,66.0,66.0,62.3,59.0,97,77,50,0.00,40.00,8,6,21,0.02
2013-4-30,79.0,70.8,66.0,70.0,66.6,62.0,97,87,72,0.00,40.00,0,0,7,0.49
2013-5-1,80.0,70.7,64.0,69.0,65.1,60.0,98,84,68,0.00,40.00,1,0,10,0.03
2013-5-2,78.0,68.9,62.0,66.0,62.1,55.0,94,80,62,0.00,40.00,2,0,6,0.01
2013-5-3,81.0,69.7,64.0,68.0,64.6,61.0,97,84,63,0.00,40.00,3,0,8,0.01
2013-5-4,78.0,69.4,65.0,68.0,65.1,61.0,99,87,64,0.00,40.00,1,0,10,0.16
2013-5-5,78.0,68.0,62.0,69.0,63.5,59.0,98,86,73,0.00,40.00,6,2,14,0.36
2013-5-6,78.0,68.4,60.0,61.0,56.8,52.0,90,68,45,0.00,40.00,5,3,11,0.02
2013-5-7,76.0,67.3,59.0,61.0,58.2,54.0,91,74,57,0.00,40.00,3,1,11,0.00
2013-5-8,79.0,68.8,60.0,65.0,61.6,56.0,99,79,61,0.00,40.00,4,1,12,0.02
2013-5-9,79.0,69.5,62.0,65.0,60.8,53.0,96,75,55,0.00,40.00,4,1,10,0.03
2013-5-10,78.0,66.7,62.0,67.0,57.6,-99.9,96,80,65,0.00,40.00,7,4,13,0.01
2013-5-11,76.0,66.5,61.0,65.0,58.3,-99.9,90,78,66,0.00,40.00,8,5,15,0.01
2013-5-12,79.0,69.8,61.0,63.0,58.4,52.0,88,68,53,0.00,40.00,4,2,12,0.00
2013-5-13,76.0,68.2,63.0,71.0,65.4,60.0,98,91,77,0.00,40.00,4,0,9,0.65
2013-5-14,82.0,70.6,64.0,68.0,63.0,53.0,94,78,62,0.00,40.00,3,0,10,0.01
2013-5-15,82.0,72.8,66.0,67.0,61.2,56.0,79,67,56,0.00,40.00,4,1,11,0.01
2013-5-16,85.0,66.7,64.0,65.0,41.1,-99.9,77,63,46,0.00,40.00,6,2,13,0.00
2013-5-17,81.0,71.3,64.0,65.0,55.1,-99.9,77,65,54,0.00,40.00,5,1,12,0.00
2013-5-18,84.0,70.5,62.0,68.0,60.7,53.0,91,72,56,0.00,40.00,5,1,9,0.00
2013-5-19,77.0,65.4,60.0,68.0,61.5,56.0,99,88,74,0.00,40.00,6,3,14,0.58
2013-5-20,77.0,65.5,57.0,63.0,57.9,51.0,87,77,63,0.00,40.00,6,2,10,0.02
2013-5-21,80.0,67.9,61.0,63.0,58.6,52.0,88,73,57,0.00,40.00,2,0,9,0.01
2013-5-22,81.0,70.8,62.0,64.0,58.6,54.0,80,66,53,0.00,40.00,1,0,9,0.01
2013-5-23,80.0,71.2,65.0,67.0,61.3,55.0,85,71,54,0.00,40.00,1,0,7,0.00
2013-5-24,85.0,75.0,67.0,68.0,62.3,58.0,91,66,46,0.00,40.00,4,1,10,0.00
2013-5-25,84.0,73.1,65.0,68.0,64.1,58.0,99,75,54,0.00,40.00,3,0,12,0.00
2013-5-26,83.0,72.4,63.0,66.0,60.0,54.0,94,66,49,0.00,40.00,3,1,10,0.00
2013-5-27,81.0,71.9,64.0,65.0,61.1,55.0,96,70,54,0.00,40.00,4,1,10,0.00
2013-5-28,80.0,70.0,65.0,67.0,59.4,54.0,86,70,55,0.00,40.00,3,0,10,0.06
2013-5-29,85.0,73.1,63.0,68.0,62.9,58.0,99,72,52,0.00,40.00,3,0,9,0.06
2013-5-30,83.0,72.2,65.0,69.0,64.8,59.0,99,78,62,0.00,40.00,2,0,8,0.01
2013-5-31,84.0,73.5,65.0,70.0,66.2,61.0,97,79,60,0.00,40.00,3,0,8,0.01
2013-6-1,83.0,73.0,66.0,71.0,65.7,62.0,96,79,55,0.00,40.00,3,0,11,0.00
2013-6-2,86.0,73.7,66.0,69.0,64.7,58.0,98,75,52,0.00,40.00,3,1,10,0.00
2013-6-3,84.0,74.1,66.0,68.0,62.9,55.0,98,71,48,0.00,40.00,6,2,13,0.00
2013-6-4,84.0,72.5,64.0,66.0,59.5,54.0,97,65,51,0.00,40.00,6,1,15,0.00
2013-6-5,85.0,72.5,63.0,66.0,62.1,57.0,99,72,50,0.00,40.00,4,1,10,0.00
2013-6-6,84.0,73.4,64.0,64.0,59.9,53.0,97,64,45,0.00,40.00,6,1,13,0.00
2013-6-7,85.0,72.7,64.0,64.0,58.2,54.0,78,62,40,0.00,40.00,6,1,15,0.00
2013-6-8,85.0,73.5,66.0,63.0,58.8,55.0,82,61,39,0.00,40.00,5,2,14,0.00
2013-6-9,81.0,73.4,65.0,66.0,59.2,54.0,82,62,53,0.00,40.00,5,1,14,0.00
2013-6-10,84.0,74.5,68.0,66.0,61.4,57.0,76,64,48,0.00,40.00,4,1,12,0.00
2013-6-11,83.0,72.1,66.0,66.0,62.9,58.0,89,73,55,0.00,40.00,6,1,13,0.00
2013-6-12,84.0,74.0,66.0,66.0,62.2,56.0,93,68,48,0.00,40.00,4,1,10,0.00
2013-6-13,88.0,75.0,64.0,67.0,62.0,56.0,96,66,42,0.00,40.00,6,1,15,0.00
2013-6-14,82.0,72.8,64.0,65.0,59.3,53.0,94,64,45,0.00,40.00,5,1,13,0.01
2013-6-15,84.0,73.5,65.0,63.0,58.3,53.0,75,60,47,0.00,40.00,4,1,11,0.00
2013-6-16,82.0,72.7,65.0,65.0,59.2,52.0,76,63,54,0.00,40.00,4,1,11,0.01
2013-6-17,87.0,73.3,66.0,65.0,59.8,56.0,79,64,45,0.00,40.00,5,0,14,0.01
2013-6-18,82.0,72.2,66.0,68.0,62.0,57.0,91,71,57,0.00,40.00,3,1,17,0.00
2013-6-19,83.0,73.9,68.0,68.0,61.6,57.0,84,66,49,0.00,40.00,5,1,11,0.00